| time (UTC) | temp F | wind direction | speed MPH | gust MPH | rain 1hr in | rain 24hr in | rain mn in | humidity % | barometer mb |
| 20260502130311 | 75 | 157 | 3.0 | 3.0 | 0.00 | 0.00 | 0.00 | 34 | 1014.8 |
| 20260502123811 | 75 | 202 | 0.0 | 6.0 | 0.00 | 0.00 | 0.00 | 34 | 1015.2 |
| 20260502123311 | 75 | 225 | 6.0 | 6.0 | 0.00 | 0.00 | 0.00 | 34 | 1015.2 |
| 20260502122811 | 75 | 202 | 5.0 | 7.0 | 0.00 | 0.00 | 0.00 | 35 | 1015.4 |
| 20260502122312 | 75 | 225 | 4.0 | 4.0 | 0.00 | 0.00 | 0.00 | 36 | 1015.4 |
| 20260502121811 | 75 | 225 | 0.0 | 5.0 | 0.00 | 0.00 | 0.00 | 35 | 1015.6 |
| 20260502121312 | 75 | 180 | 3.0 | 6.0 | 0.00 | 0.00 | 0.00 | 35 | 1015.5 |
| 20260502120812 | 75 | 202 | 0.0 | 6.0 | 0.00 | 0.00 | 0.00 | 34 | 1015.7 |
| 20260502120312 | 75 | 202 | 6.0 | 6.0 | 0.00 | 0.00 | 0.00 | 34 | 1015.8 |
| 20260502115812 | 75 | 202 | 2.0 | 9.0 | 0.00 | 0.00 | 0.00 | 33 | 1015.9 |
| 20260502115312 | 75 | 180 | 8.0 | 8.0 | 0.00 | 0.00 | 0.00 | 35 | 1015.8 |
| 20260502114812 | 74 | 157 | 5.0 | 5.0 | 0.00 | 0.00 | 0.00 | 35 | 1015.9 |
| 20260502114312 | 74 | 202 | 3.0 | 5.0 | 0.00 | 0.00 | 0.00 | 35 | 1015.9 |
| 20260502113812 | 74 | 202 | 3.0 | 7.0 | 0.00 | 0.00 | 0.00 | 33 | 1015.9 |
| 20260502113312 | 74 | 247 | 1.0 | 6.0 | 0.00 | 0.00 | 0.00 | 35 | 1016.2 |
| 20260502112812 | 74 | 247 | 2.0 | 11.0 | 0.00 | 0.00 | 0.00 | 34 | 1016.2 |
| 20260502112312 | 74 | 180 | 8.0 | 8.0 | 0.00 | 0.00 | 0.00 | 34 | 1016.2 |
| 20260502111812 | 73 | 202 | 5.0 | 7.0 | 0.00 | 0.00 | 0.00 | 34 | 1016.3 |
| 20260502111312 | 73 | 180 | 5.0 | 6.0 | 0.00 | 0.00 | 0.00 | 35 | 1016.4 |
| 20260502110812 | 73 | 135 | 2.0 | 9.0 | 0.00 | 0.00 | 0.00 | 35 | 1016.4 |
| 20260502110312 | 73 | 135 | 6.0 | 10.0 | 0.00 | 0.00 | 0.00 | 35 | 1016.6 |
| 20260502105812 | 73 | 157 | 4.0 | 6.0 | 0.00 | 0.00 | 0.00 | 36 | 1016.6 |
| 20260502105312 | 73 | 157 | 3.0 | 6.0 | 0.00 | 0.00 | 0.00 | 37 | 1016.8 |
| 20260502104812 | 72 | 202 | 4.0 | 5.0 | 0.00 | 0.00 | 0.00 | 37 | 1016.9 |
| 20260502104312 | 72 | 202 | 3.0 | 8.0 | 0.00 | 0.00 | 0.00 | 37 | 1016.9 |
| 20260502103812 | 72 | 180 | 1.0 | 6.0 | 0.00 | 0.00 | 0.00 | 35 | 1016.7 |
| 20260502103312 | 72 | 180 | 3.0 | 9.0 | 0.00 | 0.00 | 0.00 | 36 | 1016.9 |
| 20260502102812 | 71 | 202 | 2.0 | 4.0 | 0.00 | 0.00 | 0.00 | 36 | 1016.9 |
| 20260502102312 | 71 | 202 | 3.0 | 8.0 | 0.00 | 0.00 | 0.00 | 36 | 1017.0 |
| 20260502101812 | 71 | 157 | 8.0 | 8.0 | 0.00 | 0.00 | 0.00 | 37 | 1017.1 |
| 20260502101312 | 71 | 157 | 4.0 | 9.0 | 0.00 | 0.00 | 0.00 | 38 | 1017.0 |
| 20260502100812 | 70 | 202 | 6.0 | 6.0 | 0.00 | 0.00 | 0.00 | 37 | 1017.2 |
| 20260502100312 | 70 | 202 | 4.0 | 4.0 | 0.00 | 0.00 | 0.00 | 39 | 1017.4 |
| 20260502091312 | 69 | 225 | 2.0 | 5.0 | 0.00 | 0.00 | 0.00 | 38 | 1017.8 |
| 20260502090812 | 69 | 180 | 2.0 | 7.0 | 0.00 | 0.00 | 0.00 | 37 | 1017.9 |
| 20260502090312 | 69 | 180 | 3.0 | 6.0 | 0.00 | 0.00 | 0.00 | 38 | 1018.0 |
| 20260502071312 | 67 | 180 | 4.0 | 7.0 | 0.00 | 0.00 | 0.00 | 44 | 1018.7 |
| 20260502070812 | 66 | 180 | 2.0 | 4.0 | 0.00 | 0.00 | 0.00 | 45 | 1018.7 |
| 20260502070312 | 65 | 157 | 3.0 | 5.0 | 0.00 | 0.00 | 0.00 | 50 | 1018.6 |
| 20260502065812 | 63 | 202 | 4.0 | 4.0 | 0.00 | 0.00 | 0.00 | 53 | 1018.6 |
| 20260502065312 | 60 | 202 | 4.0 | 4.0 | 0.00 | 0.00 | 0.00 | 54 | 1018.8 |
| 20260502064812 | 59 | 202 | 3.0 | 4.0 | 0.00 | 0.00 | 0.00 | 57 | 1018.7 |
| 20260502064312 | 57 | 202 | 2.0 | 4.0 | 0.00 | 0.00 | 0.00 | 58 | 1018.8 |
| 20260502063812 | 56 | 135 | 2.0 | 3.0 | 0.00 | 0.00 | 0.00 | 60 | 1018.9 |
| 20260502063312 | 55 | 180 | 2.0 | 4.0 | 0.00 | 0.00 | 0.00 | 60 | 1018.9 |
| 20260502062812 | 55 | 180 | 3.0 | 4.0 | 0.00 | 0.00 | 0.00 | 61 | 1018.8 |
| 20260502062312 | 54 | 180 | 2.0 | 5.0 | 0.00 | 0.00 | 0.00 | 61 | 1018.9 |
| 20260502061812 | 53 | 180 | 3.0 | 6.0 | 0.00 | 0.00 | 0.00 | 62 | 1018.9 |
| 20260502061312 | 53 | 180 | 2.0 | 5.0 | 0.00 | 0.00 | 0.00 | 63 | 1019.0 |
| 20260502060812 | 53 | 180 | 3.0 | 5.0 | 0.00 | 0.00 | 0.00 | 64 | 1018.9 |
| 20260502060312 | 52 | 157 | 5.0 | 5.0 | 0.00 | 0.00 | 0.00 | 66 | 1019.0 |
| 20260502055812 | 51 | 202 | 2.0 | 4.0 | 0.00 | 0.00 | 0.00 | 67 | 1019.1 |
| 20260502055312 | 51 | 157 | 4.0 | 4.0 | 0.00 | 0.00 | 0.00 | 69 | 1019.0 |
| 20260502054812 | 50 | 202 | 3.0 | 5.0 | 0.00 | 0.00 | 0.00 | 69 | 1019.1 |
| 20260502054312 | 50 | 157 | 4.0 | 4.0 | 0.00 | 0.00 | 0.00 | 69 | 1019.0 |
| 20260502053812 | 50 | 202 | 2.0 | 5.0 | 0.00 | 0.00 | 0.00 | 70 | 1019.0 |
| 20260502053312 | 49 | 157 | 2.0 | 3.0 | 0.00 | 0.00 | 0.00 | 70 | 1018.9 |
| 20260502052812 | 49 | 180 | 2.0 | 4.0 | 0.00 | 0.00 | 0.00 | 71 | 1019.0 |
| 20260502052312 | 49 | 180 | 2.0 | 5.0 | 0.00 | 0.00 | 0.00 | 72 | 1019.0 |
| 20260502051812 | 48 | 202 | 4.0 | 4.0 | 0.00 | 0.00 | 0.00 | 73 | 1019.0 |
| 20260502051312 | 47 | 180 | 3.0 | 5.0 | 0.00 | 0.00 | 0.00 | 74 | 1019.0 |
| 20260502050812 | 46 | 157 | 5.0 | 5.0 | 0.00 | 0.00 | 0.00 | 76 | 1019.0 |
| 20260502050312 | 45 | 157 | 4.0 | 5.0 | 0.00 | 0.00 | 0.00 | 77 | 1019.2 |
| 20260502045812 | 44 | 157 | 3.0 | 5.0 | 0.00 | 0.00 | 0.00 | 78 | 1019.1 |
| 20260502045312 | 44 | 157 | 2.0 | 4.0 | 0.00 | 0.00 | 0.00 | 79 | 1019.1 |
| 20260502044812 | 43 | 202 | 3.0 | 3.0 | 0.00 | 0.00 | 0.00 | 78 | 1019.0 |
| 20260502044312 | 43 | 157 | 2.0 | 4.0 | 0.00 | 0.00 | 0.00 | 79 | 1019.0 |
| 20260502043813 | 43 | 202 | 2.0 | 4.0 | 0.00 | 0.00 | 0.00 | 79 | 1019.0 |
| 20260502043313 | 42 | 180 | 2.0 | 3.0 | 0.00 | 0.00 | 0.00 | 79 | 1019.1 |
| 20260502042813 | 42 | 180 | 3.0 | 3.0 | 0.00 | 0.00 | 0.00 | 78 | 1019.0 |
| 20260502042313 | 42 | 180 | 2.0 | 2.0 | 0.00 | 0.00 | 0.00 | 78 | 1019.1 |
| 20260502041813 | 42 | 180 | 1.0 | 2.0 | 0.00 | 0.00 | 0.00 | 78 | 1019.1 |
| 20260502041313 | 42 | 180 | 1.0 | 3.0 | 0.00 | 0.00 | 0.00 | 78 | 1019.0 |
| 20260502040813 | 42 | 157 | 3.0 | 4.0 | 0.00 | 0.00 | 0.00 | 78 | 1019.0 |
| 20260502040313 | 42 | 157 | 3.0 | 4.0 | 0.00 | 0.00 | 0.00 | 78 | 1019.0 |
| 20260502035813 | 42 | 180 | 3.0 | 5.0 | 0.00 | 0.00 | 0.00 | 78 | 1019.0 |
| 20260502035313 | 42 | 180 | 3.0 | 4.0 | 0.00 | 0.00 | 0.00 | 79 | 1019.0 |
| 20260502034813 | 42 | 157 | 3.0 | 4.0 | 0.00 | 0.00 | 0.00 | 79 | 1019.0 |
| 20260502034313 | 41 | 157 | 3.0 | 4.0 | 0.00 | 0.00 | 0.00 | 80 | 1018.9 |
| 20260502033813 | 41 | 157 | 3.0 | 4.0 | 0.00 | 0.00 | 0.00 | 80 | 1019.1 |
| 20260502033313 | 41 | 157 | 3.0 | 4.0 | 0.00 | 0.00 | 0.00 | 81 | 1019.1 |
| 20260502032813 | 41 | 157 | 3.0 | 3.0 | 0.00 | 0.00 | 0.00 | 81 | 1019.1 |
| 20260502032313 | 41 | 180 | 2.0 | 2.0 | 0.00 | 0.00 | 0.00 | 81 | 1019.3 |
| 20260502031813 | 41 | 180 | 2.0 | 2.0 | 0.00 | 0.00 | 0.00 | 81 | 1019.3 |
| 20260502031313 | 41 | 180 | 2.0 | 2.0 | 0.00 | 0.00 | 0.00 | 80 | 1019.2 |
| 20260502030813 | 41 | 180 | 2.0 | 2.0 | 0.00 | 0.00 | 0.00 | 80 | 1019.3 |
| 20260502030313 | 41 | 202 | 2.0 | 2.0 | 0.00 | 0.00 | 0.00 | 80 | 1019.5 |
| 20260502025813 | 41 | 180 | 0.0 | 1.0 | 0.00 | 0.00 | 0.00 | 79 | 1019.4 |
| 20260502025313 | 41 | 180 | 1.0 | 2.0 | 0.00 | 0.00 | 0.00 | 80 | 1019.3 |
| 20260502024813 | 42 | 180 | 1.0 | 2.0 | 0.00 | 0.00 | 0.00 | 79 | 1019.2 |
| 20260502024313 | 41 | 180 | 2.0 | 3.0 | 0.00 | 0.00 | 0.00 | 79 | 1019.3 |
| 20260502023813 | 41 | 202 | 3.0 | 3.0 | 0.00 | 0.00 | 0.00 | 79 | 1019.4 |
| 20260502023313 | 42 | 180 | 2.0 | 3.0 | 0.00 | 0.00 | 0.00 | 79 | 1019.5 |
| 20260502022813 | 42 | 180 | 2.0 | 3.0 | 0.00 | 0.00 | 0.00 | 78 | 1019.4 |
| 20260502022313 | 42 | 180 | 2.0 | 2.0 | 0.00 | 0.00 | 0.00 | 78 | 1019.2 |
| 20260502021813 | 42 | 202 | 0.0 | 2.0 | 0.00 | 0.00 | 0.00 | 78 | 1019.5 |
| 20260502021313 | 42 | 157 | 0.0 | 0.0 | 0.00 | 0.00 | 0.00 | 78 | 1019.5 |
| 20260502020813 | 42 | 180 | 0.0 | 0.0 | 0.00 | 0.00 | 0.00 | 77 | 1019.3 |
| 20260502020313 | 42 | 180 | 0.0 | 1.0 | 0.00 | 0.00 | 0.00 | 77 | 1019.3 |
| 20260502015813 | 43 | 157 | 0.0 | 1.0 | 0.00 | 0.00 | 0.00 | 76 | 1019.5 |
| 20260502015313 | 43 | 157 | 0.0 | 1.0 | 0.00 | 0.00 | 0.00 | 75 | 1019.3 |
| 20260502014813 | 43 | 157 | 0.0 | 1.0 | 0.00 | 0.00 | 0.00 | 74 | 1019.3 |
| 20260502014313 | 43 | 157 | 0.0 | 2.0 | 0.00 | 0.00 | 0.00 | 73 | 1019.5 |
| 20260502013813 | 44 | 157 | 1.0 | 2.0 | 0.00 | 0.00 | 0.00 | 72 | 1019.5 |
| 20260502013313 | 44 | 157 | 1.0 | 2.0 | 0.00 | 0.00 | 0.00 | 71 | 1019.5 |
| 20260502012813 | 44 | 157 | 0.0 | 2.0 | 0.00 | 0.00 | 0.00 | 71 | 1019.4 |
| 20260502012313 | 44 | 180 | 1.0 | 2.0 | 0.00 | 0.00 | 0.00 | 70 | 1019.6 |
| 20260502011813 | 44 | 157 | 2.0 | 2.0 | 0.00 | 0.00 | 0.00 | 70 | 1019.7 |
| 20260502011313 | 44 | 157 | 2.0 | 2.0 | 0.00 | 0.00 | 0.00 | 70 | 1019.6 |
| 20260502010813 | 45 | 157 | 1.0 | 2.0 | 0.00 | 0.00 | 0.00 | 69 | 1019.8 |
| 20260502010313 | 45 | 157 | 1.0 | 2.0 | 0.00 | 0.00 | 0.00 | 69 | 1019.7 |
| 20260502005814 | 45 | 157 | 1.0 | 2.0 | 0.00 | 0.00 | 0.00 | 70 | 1019.7 |
| 20260502005313 | 45 | 157 | 2.0 | 3.0 | 0.00 | 0.00 | 0.00 | 70 | 1019.7 |
| 20260502004813 | 45 | 180 | 2.0 | 3.0 | 0.00 | 0.00 | 0.00 | 71 | 1019.6 |
| 20260502004313 | 45 | 157 | 2.0 | 4.0 | 0.00 | 0.00 | 0.00 | 71 | 1019.6 |
| 20260502003813 | 45 | 180 | 0.0 | 0.0 | 0.00 | 0.00 | 0.00 | 73 | 1019.6 |
| 20260502003313 | 45 | 157 | 0.0 | 0.0 | 0.00 | 0.00 | 0.00 | 73 | 1019.7 |
| 20260502002813 | 45 | 180 | 0.0 | 0.0 | 0.00 | 0.00 | 0.00 | 72 | 1019.7 |
| 20260502002313 | 45 | 157 | 0.0 | 0.0 | 0.00 | 0.00 | 0.00 | 72 | 1019.7 |
| 20260502001813 | 45 | 157 | 0.0 | 0.0 | 0.00 | 0.00 | 0.00 | 71 | 1019.9 |
| 20260502001313 | 46 | 157 | 0.0 | 0.0 | 0.00 | 0.00 | 0.00 | 71 | 1019.8 |
| 20260502000813 | 46 | 157 | 0.0 | 0.0 | 0.00 | 0.00 | 0.00 | 71 | 1019.8 |
| 20260502000313 | 46 | 157 | 0.0 | 0.0 | 0.00 | 0.00 | 0.00 | 70 | 1020.0 |
| 20260501235813 | 46 | 157 | 0.0 | 0.0 | 0.00 | 0.00 | 0.00 | 70 | 1019.9 |
| 20260501235313 | 46 | 157 | 0.0 | 0.0 | 0.00 | 0.00 | 0.00 | 69 | 1019.9 |
| 20260501234813 | 46 | 135 | 0.0 | 0.0 | 0.00 | 0.00 | 0.00 | 68 | 1019.9 |
| 20260501234313 | 47 | 135 | 0.0 | 0.0 | 0.00 | 0.00 | 0.00 | 67 | 1020.1 |
| 20260501233813 | 47 | 135 | 0.0 | 0.0 | 0.00 | 0.00 | 0.00 | 66 | 1019.9 |
| 20260501233313 | 47 | 135 | 0.0 | 0.0 | 0.00 | 0.00 | 0.00 | 64 | 1020.1 |
| 20260501232813 | 47 | 157 | 0.0 | 0.0 | 0.00 | 0.00 | 0.00 | 61 | 1020.1 |
| 20260501232313 | 48 | 157 | 0.0 | 0.0 | 0.00 | 0.00 | 0.00 | 59 | 1020.1 |
| 20260501231813 | 48 | 180 | 0.0 | 0.0 | 0.00 | 0.00 | 0.00 | 59 | 1020.1 |
| 20260501231313 | 48 | 180 | 0.0 | 0.0 | 0.00 | 0.00 | 0.00 | 59 | 1020.0 |
| 20260501230813 | 48 | 180 | 0.0 | 0.0 | 0.00 | 0.00 | 0.00 | 59 | 1020.1 |
| 20260501230313 | 48 | 180 | 0.0 | 0.0 | 0.00 | 0.00 | 0.00 | 59 | 1020.1 |
| 20260501225813 | 48 | 180 | 0.0 | 0.0 | 0.00 | 0.00 | 0.00 | 59 | 1020.1 |
| 20260501225313 | 48 | 180 | 0.0 | 0.0 | 0.00 | 0.00 | 0.00 | 59 | 1020.0 |
| 20260501224813 | 48 | 180 | 0.0 | 0.0 | 0.00 | 0.00 | 0.00 | 57 | 1020.1 |
| 20260501224313 | 49 | 180 | 0.0 | 0.0 | 0.00 | 0.00 | 0.00 | 56 | 1020.0 |
| 20260501223813 | 49 | 180 | 0.0 | 0.0 | 0.00 | 0.00 | 0.00 | 56 | 1020.1 |
| 20260501223313 | 49 | 180 | 0.0 | 0.0 | 0.00 | 0.00 | 0.00 | 56 | 1020.1 |
| 20260501222813 | 49 | 180 | 0.0 | 0.0 | 0.00 | 0.00 | 0.00 | 54 | 1020.1 |
| 20260501222313 | 49 | 180 | 0.0 | 0.0 | 0.00 | 0.00 | 0.00 | 52 | 1020.1 |
| 20260501221813 | 50 | 180 | 0.0 | 0.0 | 0.00 | 0.00 | 0.00 | 52 | 1020.1 |
| 20260501221313 | 50 | 247 | 0.0 | 0.0 | 0.00 | 0.00 | 0.00 | 51 | 1020.0 |
| 20260501220813 | 50 | 247 | 0.0 | 0.0 | 0.00 | 0.00 | 0.00 | 51 | 1020.2 |
| 20260501220313 | 50 | 180 | 0.0 | 0.0 | 0.00 | 0.00 | 0.00 | 51 | 1020.1 |
| 20260501215813 | 50 | 180 | 0.0 | 0.0 | 0.00 | 0.00 | 0.00 | 50 | 1020.2 |
| 20260501215313 | 50 | 180 | 0.0 | 0.0 | 0.00 | 0.00 | 0.00 | 50 | 1020.1 |
| 20260501214813 | 50 | 157 | 0.0 | 0.0 | 0.00 | 0.00 | 0.00 | 50 | 1020.0 |
| 20260501214313 | 50 | 157 | 0.0 | 0.0 | 0.00 | 0.00 | 0.00 | 50 | 1020.1 |
| 20260501213813 | 51 | 157 | 0.0 | 0.0 | 0.00 | 0.00 | 0.00 | 49 | 1020.1 |
| 20260501213313 | 51 | 157 | 0.0 | 0.0 | 0.00 | 0.00 | 0.00 | 49 | 1020.1 |
| 20260501212814 | 51 | 157 | 0.0 | 0.0 | 0.00 | 0.00 | 0.00 | 49 | 1020.0 |
| 20260501212313 | 51 | 157 | 0.0 | 0.0 | 0.00 | 0.00 | 0.00 | 48 | 1020.1 |
| 20260501211813 | 51 | 157 | 0.0 | 0.0 | 0.00 | 0.00 | 0.00 | 48 | 1020.1 |
| 20260501211314 | 51 | 157 | 0.0 | 0.0 | 0.00 | 0.00 | 0.00 | 49 | 1020.1 |
| 20260501210814 | 51 | 157 | 0.0 | 0.0 | 0.00 | 0.00 | 0.00 | 49 | 1020.2 |
| 20260501210314 | 52 | 135 | 0.0 | 0.0 | 0.00 | 0.00 | 0.00 | 48 | 1020.3 |
| 20260501205814 | 52 | 135 | 0.0 | 0.0 | 0.00 | 0.00 | 0.00 | 47 | 1020.2 |
| 20260501205314 | 52 | 180 | 0.0 | 0.0 | 0.00 | 0.00 | 0.00 | 47 | 1020.2 |
| 20260501204814 | 52 | 180 | 0.0 | 0.0 | 0.00 | 0.00 | 0.00 | 47 | 1020.3 |
| 20260501204314 | 52 | 180 | 0.0 | 0.0 | 0.00 | 0.00 | 0.00 | 47 | 1020.5 |
| 20260501203814 | 53 | 180 | 0.0 | 0.0 | 0.00 | 0.00 | 0.00 | 46 | 1020.3 |
| 20260501203314 | 53 | 157 | 0.0 | 0.0 | 0.00 | 0.00 | 0.00 | 46 | 1020.4 |
| 20260501202814 | 53 | 270 | 0.0 | 0.0 | 0.00 | 0.00 | 0.00 | 45 | 1020.4 |
| 20260501202314 | 53 | 292 | 0.0 | 0.0 | 0.00 | 0.00 | 0.00 | 45 | 1020.3 |
| 20260501201814 | 53 | 292 | 0.0 | 0.0 | 0.00 | 0.00 | 0.00 | 44 | 1020.6 |
| 20260501201314 | 54 | 292 | 0.0 | 0.0 | 0.00 | 0.00 | 0.00 | 44 | 1020.6 |
| 20260501200814 | 54 | 292 | 0.0 | 0.0 | 0.00 | 0.00 | 0.00 | 44 | 1020.7 |
| 20260501200314 | 54 | 292 | 0.0 | 0.0 | 0.00 | 0.00 | 0.00 | 44 | 1020.6 |
| 20260501195814 | 55 | 315 | 0.0 | 0.0 | 0.00 | 0.00 | 0.00 | 44 | 1020.6 |
| 20260501195314 | 55 | 315 | 0.0 | 0.0 | 0.00 | 0.00 | 0.00 | 43 | 1020.7 |
| 20260501194814 | 55 | 315 | 0.0 | 0.0 | 0.00 | 0.00 | 0.00 | 43 | 1020.8 |
| 20260501194314 | 55 | 292 | 0.0 | 0.0 | 0.00 | 0.00 | 0.00 | 42 | 1020.7 |
| 20260501193814 | 55 | 292 | 0.0 | 0.0 | 0.00 | 0.00 | 0.00 | 42 | 1020.7 |
| 20260501193314 | 56 | 292 | 0.0 | 0.0 | 0.00 | 0.00 | 0.00 | 42 | 1020.7 |
| 20260501192814 | 56 | 292 | 0.0 | 0.0 | 0.00 | 0.00 | 0.00 | 42 | 1020.7 |
| 20260501192314 | 56 | 292 | 0.0 | 0.0 | 0.00 | 0.00 | 0.00 | 42 | 1020.7 |
| 20260501191814 | 57 | 315 | 0.0 | 0.0 | 0.00 | 0.00 | 0.00 | 42 | 1020.7 |
| 20260501191314 | 57 | 292 | 0.0 | 0.0 | 0.00 | 0.00 | 0.00 | 41 | 1020.8 |
| 20260501190814 | 57 | 292 | 0.0 | 0.0 | 0.00 | 0.00 | 0.00 | 41 | 1020.8 |
| 20260501190314 | 58 | 292 | 0.0 | 0.0 | 0.00 | 0.00 | 0.00 | 40 | 1020.7 |
| 20260501185814 | 58 | 292 | 0.0 | 0.0 | 0.00 | 0.00 | 0.00 | 41 | 1020.8 |
| 20260501185314 | 58 | 292 | 0.0 | 1.0 | 0.00 | 0.00 | 0.00 | 40 | 1020.8 |
| 20260501184814 | 58 | 292 | 1.0 | 2.0 | 0.00 | 0.00 | 0.00 | 40 | 1020.8 |
| 20260501184314 | 59 | 292 | 1.0 | 2.0 | 0.00 | 0.00 | 0.00 | 40 | 1020.7 |
| 20260501183814 | 59 | 292 | 2.0 | 2.0 | 0.00 | 0.00 | 0.00 | 40 | 1020.8 |
| 20260501183314 | 59 | 270 | 0.0 | 2.0 | 0.00 | 0.00 | 0.00 | 39 | 1020.8 |
| 20260501182814 | 60 | 292 | 1.0 | 2.0 | 0.00 | 0.00 | 0.00 | 39 | 1020.7 |
| 20260501182314 | 60 | 270 | 0.0 | 2.0 | 0.00 | 0.00 | 0.00 | 39 | 1020.7 |
| 20260501181814 | 60 | 270 | 0.0 | 2.0 | 0.00 | 0.00 | 0.00 | 38 | 1020.7 |
| 20260501181314 | 61 | 270 | 0.0 | 2.0 | 0.00 | 0.00 | 0.00 | 38 | 1020.6 |
| 20260501180814 | 61 | 292 | 2.0 | 2.0 | 0.00 | 0.00 | 0.00 | 38 | 1020.6 |
| 20260501180314 | 62 | 270 | 1.0 | 3.0 | 0.00 | 0.00 | 0.00 | 37 | 1020.6 |
| 20260501175814 | 62 | 315 | 3.0 | 3.0 | 0.00 | 0.00 | 0.00 | 37 | 1020.7 |
| 20260501175314 | 63 | 292 | 1.0 | 4.0 | 0.00 | 0.00 | 0.00 | 37 | 1020.6 |
| 20260501174814 | 63 | 292 | 1.0 | 4.0 | 0.00 | 0.00 | 0.00 | 37 | 1020.5 |
| 20260501174314 | 64 | 292 | 2.0 | 2.0 | 0.00 | 0.00 | 0.00 | 37 | 1020.5 |
| 20260501173814 | 64 | 270 | 0.0 | 3.0 | 0.00 | 0.00 | 0.00 | 37 | 1020.4 |
| 20260501173314 | 64 | 270 | 1.0 | 5.0 | 0.00 | 0.00 | 0.00 | 36 | 1020.5 |
| 20260501172814 | 64 | 270 | 2.0 | 3.0 | 0.00 | 0.00 | 0.00 | 36 | 1020.4 |
| 20260501172314 | 65 | 270 | 2.0 | 4.0 | 0.00 | 0.00 | 0.00 | 36 | 1020.4 |
| 20260501171814 | 65 | 292 | 4.0 | 4.0 | 0.00 | 0.00 | 0.00 | 36 | 1020.6 |
| 20260501171315 | 66 | 292 | 4.0 | 5.0 | 0.00 | 0.00 | 0.00 | 36 | 1020.6 |
| 20260501170814 | 66 | 270 | 2.0 | 5.0 | 0.00 | 0.00 | 0.00 | 37 | 1020.5 |
| 20260501170314 | 66 | 270 | 2.0 | 5.0 | 0.00 | 0.00 | 0.00 | 37 | 1020.5 |
| 20260501165814 | 66 | 292 | 2.0 | 4.0 | 0.00 | 0.00 | 0.00 | 37 | 1020.5 |
| 20260501165314 | 66 | 315 | 3.0 | 3.0 | 0.00 | 0.00 | 0.00 | 37 | 1020.5 |
| 20260501164814 | 67 | 270 | 1.0 | 4.0 | 0.00 | 0.00 | 0.00 | 36 | 1020.6 |
| 20260501164314 | 67 | 270 | 2.0 | 6.0 | 0.00 | 0.00 | 0.00 | 36 | 1020.5 |
| 20260501163814 | 67 | 270 | 2.0 | 5.0 | 0.00 | 0.00 | 0.00 | 36 | 1020.6 |
| 20260501163314 | 67 | 315 | 2.0 | 6.0 | 0.00 | 0.00 | 0.00 | 36 | 1020.6 |
| 20260501162814 | 68 | 270 | 3.0 | 7.0 | 0.00 | 0.00 | 0.00 | 36 | 1020.6 |
| 20260501162314 | 68 | 292 | 4.0 | 6.0 | 0.00 | 0.00 | 0.00 | 36 | 1020.6 |
| 20260501161814 | 68 | 0 | 3.0 | 3.0 | 0.00 | 0.00 | 0.00 | 37 | 1020.7 |
| 20260501161314 | 68 | 270 | 2.0 | 4.0 | 0.00 | 0.00 | 0.00 | 36 | 1020.7 |
| 20260501160814 | 68 | 270 | 1.0 | 4.0 | 0.00 | 0.00 | 0.00 | 36 | 1020.7 |
| 20260501160314 | 68 | 315 | 3.0 | 4.0 | 0.00 | 0.00 | 0.00 | 35 | 1020.7 |
| 20260501155814 | 68 | 270 | 2.0 | 9.0 | 0.00 | 0.00 | 0.00 | 35 | 1020.7 |
| 20260501155314 | 68 | 270 | 5.0 | 6.0 | 0.00 | 0.00 | 0.00 | 35 | 1020.7 |
| 20260501154814 | 69 | 270 | 2.0 | 4.0 | 0.00 | 0.00 | 0.00 | 36 | 1020.8 |
| 20260501154314 | 69 | 270 | 2.0 | 4.0 | 0.00 | 0.00 | 0.00 | 37 | 1020.7 |
| 20260501153814 | 69 | 270 | 2.0 | 5.0 | 0.00 | 0.00 | 0.00 | 36 | 1020.8 |
| 20260501153314 | 69 | 270 | 1.0 | 5.0 | 0.00 | 0.00 | 0.00 | 37 | 1020.8 |
| 20260501152814 | 69 | 270 | 2.0 | 4.0 | 0.00 | 0.00 | 0.00 | 37 | 1020.8 |
| 20260501152314 | 69 | 270 | 2.0 | 5.0 | 0.00 | 0.00 | 0.00 | 37 | 1020.9 |
| 20260501151814 | 70 | 315 | 5.0 | 5.0 | 0.00 | 0.00 | 0.00 | 37 | 1021.0 |
| 20260501151314 | 70 | 270 | 3.0 | 11.0 | 0.00 | 0.00 | 0.00 | 37 | 1020.9 |
| 20260501150814 | 70 | 270 | 5.0 | 7.0 | 0.00 | 0.00 | 0.00 | 38 | 1021.1 |
| 20260501150314 | 70 | 337 | 7.0 | 7.0 | 0.00 | 0.00 | 0.00 | 38 | 1020.9 |